M I D A S
Marine Information and Data Acquisition System
Tripno 1984 of the Zeeleeuw from 2010-11-08 07:17:38 to 2010-11-08 14:02:37
Back to CruiseResearch ActivitiesStationsMapUnderway DataData graphs

EquipmentUnitsComment
TimeDGPSUTC
LatitudeDGPSDM.mWGS84
LongitudeDGPSDM.mWGS84
TemperatureSBE03/SBE38deg celciusITS90
ConductivitySBE21S/mITS90
SalinitySBE21 Practical Salinity Units
ChlorophylAChelsea fluorimeterg/lCalibrated in Aceton
Missing or incorrect values are displayed as -999
Sea surface data collected by the RV Zeeleeuw from 2010-11-08 07:08:11 to 2010-11-08 14:30:11
Time Latitude Longitude Temperature Conductivity Salinity ChlorophylA
2010-11-08 07:09:14 51°13.663 2°55.959 17.3922 0.03198 0.174839 -0.652328
2010-11-08 07:10:12 51°13.664 2°55.959 17.3824 0.03198 0.17486 -0.617504
2010-11-08 07:11:13 51°13.664 2°55.959 17.3736 0.03198 0.174882 -0.652328
2010-11-08 07:12:12 51°13.664 2°55.959 17.3732 0.03198 0.174907 -0.617504
2010-11-08 07:13:13 51°13.665 2°55.958 17.37 0.03198 0.174932 -0.652328
2010-11-08 07:14:13 51°13.664 2°55.959 17.3717 0.03198 0.174951 -0.652328
2010-11-08 07:15:13 51°13.664 2°55.959 17.371 0.03198 0.174976 -0.652328
2010-11-08 07:16:13 51°13.664 2°55.958 17.3381 0.03198 0.175 -0.652328
2010-11-08 07:17:13 51°13.664 2°55.959 17.357 0.03198 0.175022 -0.652328
2010-11-08 07:18:13 51°13.664 2°55.96 17.2338 0.03198 0.175044 -0.617504
2010-11-08 07:19:12 51°13.664 2°55.96 17.2642 0.03198 0.175069 -0.652328
2010-11-08 07:20:13 51°13.663 2°55.961 17.3311 0.03198 0.175094 -0.617504
2010-11-08 07:21:13 51°13.663 2°55.961 17.3176 0.03198 0.175119 -0.617504
2010-11-08 07:22:13 51°13.662 2°55.961 17.317 0.03198 0.175143 -0.652328
2010-11-08 07:23:12 51°13.662 2°55.961 17.328 0.03198 0.175168 -0.652328
2010-11-08 07:24:12 51°13.662 2°55.961 17.3619 0.03198 0.175193 -0.617504
2010-11-08 07:25:11 51°13.662 2°55.961 17.3513 0.03198 0.175215 -0.652328
2010-11-08 07:26:11 51°13.662 2°55.961 17.3447 0.031876 0.174664 -0.687152
2010-11-08 07:27:11 51°13.661 2°55.961 17.3666 0.03198 0.175265 -0.652328
2010-11-08 07:28:11 51°13.661 2°55.958 17.1526 0.031876 0.174711 -0.617504
2010-11-08 07:29:15 51°13.682 2°55.871 17.3195 0.031876 0.174736 -0.652328
2010-11-08 07:30:15 51°13.687 2°55.749 17.3693 0.031876 0.174755 -0.652328
2010-11-08 07:31:13 51°13.705 2°55.736 17.4505 0.031876 0.174794 -0.652328
2010-11-08 07:32:13 51°13.785 2°55.684 17.2722 0.031876 0.174799 -0.652328
2010-11-08 07:33:11 51°13.917 2°55.579 17.1647 0.031876 0.174832 -0.652328
2010-11-08 07:34:12 51°14.067 2°55.458 17.1258 0.031876 0.174865 -0.652328
2010-11-08 07:35:15 51°14.229 2°55.323 17.2985 0.031876 0.174895 -0.617504
2010-11-08 07:36:15 51°14.385 2°55.168 17.244 0.031876 0.174917 -0.652328
2010-11-08 07:37:12 51°14.546 2°55.013 17.3567 0.031876 0.174953 -0.652328
2010-11-08 07:38:11 51°14.641 2°54.729 17.358 0.031876 0.174989 -0.652328
2010-11-08 07:39:11 51°14.561 2°54.417 17.2042 0.031876 0.175003 -0.617504
2010-11-08 07:40:11 51°14.419 2°54.14 17.1609 0.031876 0.175033 -0.617504
2010-11-08 07:41:11 51°14.294 2°53.839 17.2257 0.031876 0.175072 -0.617504
2010-11-08 07:42:11 51°14.172 2°53.527 17.2232 0.031876 0.175105 -0.687152
2010-11-08 07:43:11 51°14.048 2°53.212 17.2401 0.031876 0.175144 -0.652328
2010-11-08 07:44:11 51°13.918 2°52.897 17.2634 0.031876 0.17518 -0.687152
2010-11-08 07:45:12 51°13.779 2°52.581 17.2295 0.031876 0.175224 -0.652328
2010-11-08 07:46:11 51°13.666 2°52.253 17.2559 0.031876 0.175274 -0.652328
2010-11-08 07:47:11 51°13.555 2°51.912 17.1552 0.031876 0.175315 -0.652328
2010-11-08 07:48:12 51°13.49 2°51.623 17.3396 0.031772 0.174801 -0.652328
2010-11-08 07:49:11 51°13.445 2°51.475 17.2914 0.031772 0.174837 -0.617504
2010-11-08 07:50:11 51°13.434 2°51.428 17.329 0.031772 0.174898 -0.652328
2010-11-08 07:51:15 51°13.427 2°51.405 16.9849 0.031772 0.174926 -0.652328
2010-11-08 07:52:14 51°13.424 2°51.376 17.0613 0.031772 0.174976 -0.652328
2010-11-08 07:53:11 51°13.423 2°51.344 17.0792 0.031772 0.175012 -0.652328
2010-11-08 07:54:12 51°13.423 2°51.307 17.0992 0.031772 0.175056 -0.652328
2010-11-08 07:55:11 51°13.422 2°51.267 17.1186 0.031772 0.175098 -0.652328
2010-11-08 07:56:11 51°13.415 2°51.206 17.1441 0.031772 0.175145 -0.617504
2010-11-08 07:57:12 51°13.385 2°51.13 17.1537 0.031772 0.175187 -0.652328
2010-11-08 07:58:11 51°13.335 2°51.094 17.1671 0.031772 0.17522 -0.652328
2010-11-08 07:59:11 51°13.263 2°51.093 17.17 0.031668 0.174688 -0.617504
2010-11-08 08:00:12 51°13.179 2°51.042 17.2079 0.031668 0.174743 -0.652328
2010-11-08 08:01:11 51°13.124 2°50.967 17.2487 0.031668 0.174771 -0.687152
2010-11-08 08:02:11 51°13.088 2°50.894 17.2657 0.031668 0.174807 -0.652328
2010-11-08 08:03:12 51°13.052 2°50.825 17.2841 0.031668 0.174838 -0.617504
2010-11-08 08:04:11 51°13.012 2°50.761 17.3047 0.031668 0.174874 -0.652328
2010-11-08 08:05:11 51°12.968 2°50.705 17.3334 0.031668 0.17491 -0.617504
2010-11-08 08:06:12 51°12.922 2°50.642 17.3511 0.031668 0.174952 -0.652328
2010-11-08 08:07:12 51°12.88 2°50.571 17.3836 0.031668 0.174991 -0.652328
2010-11-08 08:08:11 51°12.841 2°50.497 17.4 0.031668 0.17503 -0.652328
2010-11-08 08:09:11 51°12.804 2°50.423 17.4238 0.031668 0.175069 -0.652328
2010-11-08 08:10:11 51°12.766 2°50.351 17.4413 0.031668 0.175105 -0.652328
2010-11-08 08:11:12 51°12.728 2°50.278 17.4703 0.031564 0.174568 -0.652328
2010-11-08 08:12:12 51°12.691 2°50.208 17.4903 0.031668 0.175186 -0.652328
2010-11-08 08:13:11 51°12.655 2°50.137 17.5296 0.031564 0.174652 -0.652328
2010-11-08 08:14:11 51°12.621 2°50.06 17.5482 0.031564 0.174694 -0.652328
2010-11-08 08:15:12 51°12.589 2°49.979 17.5738 0.031564 0.174735 -0.687152
2010-11-08 08:16:12 51°12.558 2°49.899 17.5954 0.031564 0.174783 -0.652328
2010-11-08 08:17:11 51°12.529 2°49.818 17.6188 0.031564 0.174825 -0.687152
2010-11-08 08:18:11 51°12.499 2°49.737 17.6419 0.031564 0.174872 -0.687152
2010-11-08 08:19:12 51°12.467 2°49.654 17.6688 0.031564 0.17492 -0.652328
2010-11-08 08:20:11 51°12.437 2°49.574 17.6979 0.031564 0.17497 -0.652328
2010-11-08 08:21:11 51°12.405 2°49.493 17.7294 0.031564 0.175023 -0.687152
2010-11-08 08:22:12 51°12.374 2°49.41 17.7527 0.031564 0.175076 -0.687152
2010-11-08 08:23:11 51°12.344 2°49.33 17.7654 0.031564 0.175124 -0.652328
2010-11-08 08:24:11 51°12.313 2°49.249 17.8065 0.03146 0.174597 -0.652328
2010-11-08 08:25:11 51°12.283 2°49.168 17.8291 0.03146 0.174647 -0.687152
2010-11-08 08:26:11 51°12.252 2°49.088 17.8388 0.03146 0.174697 -0.652328
2010-11-08 08:27:12 51°12.22 2°49.006 17.8702 0.03146 0.174748 -0.652328
2010-11-08 08:28:11 51°12.189 2°48.927 17.8945 0.03146 0.174798 -0.652328
2010-11-08 08:29:12 51°12.158 2°48.842 17.8697 0.03146 0.174849 -0.652328
2010-11-08 08:30:11 51°12.146 2°48.755 17.9713 0.03146 0.174908 -0.687152
2010-11-08 08:31:11 51°12.148 2°48.668 17.9836 0.03146 0.174947 -0.652328
2010-11-08 08:32:12 51°12.17 2°48.581 17.9995 0.03146 0.174995 -0.652328
2010-11-08 08:33:11 51°12.216 2°48.533 18.0052 0.03146 0.175057 -0.652328
2010-11-08 08:34:11 51°12.255 2°48.53 18.0437 0.031356 0.174522 -0.652328
2010-11-08 08:35:12 51°12.275 2°48.531 18.0608 0.031356 0.17457 -0.687152
2010-11-08 08:36:12 51°12.286 2°48.529 18.0907 0.031356 0.174612 -0.652328
2010-11-08 08:37:12 51°12.291 2°48.522 17.8792 0.031356 0.174646 -0.687152
2010-11-08 08:38:11 51°12.33 2°48.518 18.0227 0.031356 0.174705 -0.687152
2010-11-08 08:39:11 51°12.349 2°48.368 18.0259 0.031356 0.174727 -0.652328
2010-11-08 08:40:11 51°12.271 2°48.148 18.0262 0.031356 0.174744 -0.687152
2010-11-08 08:41:11 51°12.141 2°47.861 18.0417 0.031356 0.174789 -0.652328
2010-11-08 08:42:12 51°12.012 2°47.528 18.084 0.031356 0.174831 -0.652328
2010-11-08 08:43:11 51°11.888 2°47.208 18.1213 0.031356 0.174879 -0.652328
2010-11-08 08:44:12 51°11.76 2°46.881 18.1421 0.031356 0.174922 -0.652328
2010-11-08 08:45:11 51°11.637 2°46.566 18.1614 0.031356 0.174964 -0.652328
2010-11-08 08:46:11 51°11.513 2°46.25 18.1933 0.031252 0.174439 -0.687152
2010-11-08 08:47:11 51°11.39 2°45.936 18.235 0.031356 0.175088 -0.652328
2010-11-08 08:48:11 51°11.265 2°45.626 18.2471 0.031356 0.175148 -0.687152
2010-11-08 08:49:11 51°11.142 2°45.318 18.2635 0.031356 0.175213 -0.652328
2010-11-08 08:50:12 51°11.016 2°45.008 18.2873 0.031252 0.17469 -0.687152
2010-11-08 08:51:11 51°10.898 2°44.707 18.319 0.031252 0.174764 -0.687152
2010-11-08 08:52:11 51°10.779 2°44.404 18.3275 0.031252 0.174826 -0.687152
2010-11-08 08:53:11 51°10.664 2°44.104 18.3639 0.031252 0.174894 -0.652328
2010-11-08 08:54:11 51°10.546 2°43.806 18.3643 0.031252 0.174962 -0.687152
2010-11-08 08:55:12 51°10.427 2°43.503 18.4042 0.031252 0.175022 -0.652328
2010-11-08 08:56:11 51°10.312 2°43.207 18.4305 0.031252 0.17509 -0.687152
2010-11-08 08:57:11 51°10.208 2°42.969 18.4628 0.031148 0.174577 -0.687152
2010-11-08 08:58:12 51°10.159 2°42.863 18.5099 0.031148 0.174634 -0.687152
2010-11-08 08:59:12 51°10.155 2°42.825 18.506 0.031148 0.174708 -0.652328
2010-11-08 09:00:12 51°10.156 2°42.804 18.5418 0.031148 0.174762 -0.687152
2010-11-08 09:01:12 51°10.158 2°42.781 18.5524 0.031148 0.174821 -0.687152
2010-11-08 09:02:12 51°10.159 2°42.756 18.5639 0.031148 0.174872 -0.687152
2010-11-08 09:03:12 51°10.161 2°42.731 18.5859 0.031148 0.174924 -0.687152
2010-11-08 09:04:12 51°10.161 2°42.706 18.6034 0.031148 0.174975 -0.652328
2010-11-08 09:05:11 51°10.162 2°42.681 18.632 0.031044 0.174435 -0.652328
2010-11-08 09:06:11 51°10.162 2°42.653 18.6653 0.031044 0.174489 -0.687152
2010-11-08 09:07:11 51°10.164 2°42.574 18.6719 0.031044 0.174541 -0.687152
2010-11-08 09:08:12 51°10.208 2°42.495 18.6767 0.031044 0.174603 -0.652328
2010-11-08 09:09:11 51°10.274 2°42.484 18.7017 0.031044 0.174646 -0.687152
2010-11-08 09:10:11 51°10.328 2°42.512 18.7171 0.031044 0.1747 -0.687152
2010-11-08 09:11:12 51°10.375 2°42.551 18.7334 0.031044 0.174748 -0.687152
2010-11-08 09:12:12 51°10.42 2°42.585 18.7622 0.031044 0.174791 -0.687152
2010-11-08 09:13:12 51°10.462 2°42.629 18.7644 0.031044 0.174828 -0.687152
2010-11-08 09:14:11 51°10.495 2°42.687 18.7832 0.031044 0.174868 -0.652328
2010-11-08 09:15:12 51°10.511 2°42.76 18.8103 0.03094 0.17431 -0.687152
2010-11-08 09:16:12 51°10.512 2°42.834 18.8226 0.03094 0.174347 -0.687152
2010-11-08 09:17:11 51°10.504 2°42.906 18.8484 0.03094 0.174381 -0.721976
2010-11-08 09:18:11 51°10.493 2°42.979 18.8839 0.03094 0.174419 -0.687152
2010-11-08 09:19:12 51°10.483 2°43.056 18.8866 0.03094 0.174453 -0.687152
2010-11-08 09:20:12 51°10.474 2°43.13 18.9037 0.03094 0.174493 -0.687152
2010-11-08 09:21:12 51°10.463 2°43.205 18.9322 0.03094 0.174536 -0.687152
2010-11-08 09:22:11 51°10.455 2°43.281 18.9488 0.03094 0.174576 -0.652328
2010-11-08 09:23:12 51°10.446 2°43.361 18.9706 0.03094 0.174619 -0.721976
2010-11-08 09:24:12 51°10.437 2°43.439 18.9842 0.03094 0.174664 -0.652328
2010-11-08 09:25:12 51°10.429 2°43.517 18.9997 0.03094 0.174707 -0.721976
2010-11-08 09:26:12 51°10.422 2°43.597 19.013 0.03094 0.174747 -0.652328
2010-11-08 09:27:12 51°10.414 2°43.677 19.0384 0.03094 0.174796 -0.687152
2010-11-08 09:28:11 51°10.409 2°43.756 19.0552 0.03094 0.174839 -0.652328
2010-11-08 09:29:12 51°10.403 2°43.838 19.0751 0.03094 0.174885 -0.687152
2010-11-08 09:30:11 51°10.397 2°43.917 19.0904 0.030836 0.174336 -0.652328
2010-11-08 09:31:12 51°10.392 2°43.997 19.1002 0.030836 0.174382 -0.687152
2010-11-08 09:32:11 51°10.388 2°44.075 19.1197 0.030836 0.174431 -0.687152
2010-11-08 09:33:11 51°10.396 2°44.156 19.1355 0.030836 0.174471 -0.687152
2010-11-08 09:34:12 51°10.419 2°44.235 19.1374 0.030836 0.174517 -0.687152
2010-11-08 09:35:12 51°10.448 2°44.312 19.1678 0.030836 0.174557 -0.687152
2010-11-08 09:36:12 51°10.476 2°44.387 19.1735 0.030836 0.174603 -0.687152
2010-11-08 09:37:12 51°10.507 2°44.461 19.1882 0.030836 0.174638 -0.687152
2010-11-08 09:38:12 51°10.539 2°44.534 19.2038 0.030836 0.174681 -0.721976
2010-11-08 09:39:12 51°10.57 2°44.607 19.2262 0.030836 0.174718 -0.687152
2010-11-08 09:40:12 51°10.609 2°44.67 19.2414 0.030836 0.174756 -0.687152
2010-11-08 09:41:12 51°10.659 2°44.719 19.2612 0.030836 0.174796 -0.687152
2010-11-08 09:42:12 51°10.716 2°44.751 19.2758 0.030836 0.174834 -0.687152
2010-11-08 09:43:11 51°10.778 2°44.764 19.2796 0.030732 0.174277 -0.721976
2010-11-08 09:44:12 51°10.845 2°44.758 19.2864 0.030732 0.174306 -0.721976
2010-11-08 09:45:11 51°10.906 2°44.772 19.3048 0.030732 0.174346 -0.652328
2010-11-08 09:46:11 51°10.959 2°44.807 19.31 0.030732 0.174378 -0.687152
2010-11-08 09:47:11 51°11.005 2°44.855 19.3249 0.030732 0.174413 -0.687152
2010-11-08 09:48:11 51°11.041 2°44.915 19.3362 0.030732 0.174439 -0.687152
2010-11-08 09:49:12 51°11.064 2°44.987 19.3354 0.030732 0.174473 -0.687152
2010-11-08 09:50:11 51°11.067 2°45.058 19.3397 0.030732 0.174502 -0.687152
2010-11-08 09:51:11 51°11.061 2°45.109 19.3717 0.030732 0.174534 -0.687152
2010-11-08 09:52:12 51°11.061 2°45.129 19.3909 0.030732 0.174565 -0.721976
2010-11-08 09:53:11 51°11.063 2°45.129 19.399 0.030732 0.1746 -0.687152
2010-11-08 09:54:11 51°11.067 2°45.12 19.417 0.030732 0.174629 -0.687152
2010-11-08 09:55:12 51°11.073 2°45.101 19.4291 0.030732 0.174669 -0.687152
2010-11-08 09:56:11 51°11.082 2°45.091 19.4486 0.030732 0.17471 -0.652328
2010-11-08 09:57:12 51°11.109 2°45.101 19.4632 0.030628 0.174146 -0.721976
2010-11-08 09:58:11 51°11.151 2°45.075 19.4957 0.030732 0.174791 -0.687152
2010-11-08 09:59:12 51°11.161 2°44.933 19.4481 0.030732 0.174817 -0.687152
2010-11-08 10:00:12 51°11.126 2°44.669 19.4372 0.030628 0.174247 -0.721976
2010-11-08 10:01:11 51°11.088 2°44.325 19.4764 0.030628 0.174291 -0.687152
2010-11-08 10:02:12 51°11.046 2°43.959 19.4816 0.030628 0.174328 -0.721976
2010-11-08 10:03:12 51°11.006 2°43.6 19.4962 0.030628 0.174372 -0.687152
2010-11-08 10:04:11 51°10.966 2°43.248 19.485 0.030628 0.174412 -0.721976
2010-11-08 10:05:11 51°10.926 2°42.89 19.5095 0.030628 0.174455 -0.687152
2010-11-08 10:06:12 51°10.884 2°42.527 19.494 0.030628 0.174508 -0.687152
2010-11-08 10:07:11 51°10.845 2°42.177 19.5025 0.030628 0.174557 -0.652328
2010-11-08 10:08:11 51°10.806 2°41.825 19.4984 0.030628 0.174609 -0.721976
2010-11-08 10:09:12 51°10.768 2°41.468 19.5358 0.030628 0.174656 -0.721976
2010-11-08 10:10:11 51°10.73 2°41.124 19.5334 0.030628 0.174711 -0.721976
2010-11-08 10:11:11 51°10.691 2°40.773 19.5233 0.030628 0.174763 -0.687152
2010-11-08 10:12:12 51°10.65 2°40.418 19.534 0.030628 0.174815 -0.687152
2010-11-08 10:13:12 51°10.611 2°40.068 19.537 0.030628 0.174865 -0.652328
2010-11-08 10:14:12 51°10.573 2°39.717 19.5491 0.030628 0.174915 -0.652328
2010-11-08 10:15:11 51°10.533 2°39.37 19.557 0.030524 0.17436 -0.687152
2010-11-08 10:16:12 51°10.491 2°39.01 19.5441 0.030524 0.174406 -0.652328
2010-11-08 10:17:12 51°10.449 2°38.655 19.5598 0.030524 0.174456 -0.687152
2010-11-08 10:18:12 51°10.41 2°38.302 19.5668 0.030524 0.174499 -0.687152
2010-11-08 10:19:12 51°10.37 2°37.95 19.5301 0.030524 0.174549 -0.687152
2010-11-08 10:20:11 51°10.332 2°37.607 19.5584 0.030524 0.174596 -0.687152
2010-11-08 10:21:12 51°10.293 2°37.256 19.5578 0.030524 0.174636 -0.721976
2010-11-08 10:22:11 51°10.257 2°36.919 19.5031 0.030524 0.174686 -0.687152
2010-11-08 10:23:11 51°10.323 2°36.609 19.5286 0.030524 0.174733 -0.721976
2010-11-08 10:24:12 51°10.491 2°36.424 19.4417 0.03042 0.174159 -0.687152
2010-11-08 10:25:12 51°10.684 2°36.5 19.489 0.03042 0.174206 -0.687152
2010-11-08 10:26:12 51°10.864 2°36.653 19.513 0.03042 0.174235 -0.721976
2010-11-08 10:27:12 51°11.044 2°36.813 19.5379 0.03042 0.17427 -0.652328
2010-11-08 10:28:11 51°11.234 2°36.909 19.5551 0.03042 0.174314 -0.687152
2010-11-08 10:29:11 51°11.439 2°36.959 19.5825 0.03042 0.17434 -0.687152
2010-11-08 10:30:11 51°11.645 2°37.008 19.5872 0.03042 0.174375 -0.721976
2010-11-08 10:31:12 51°11.852 2°37.06 19.6052 0.03042 0.17441 -0.687152
2010-11-08 10:32:11 51°12.054 2°37.112 19.6078 0.03042 0.174439 -0.687152
2010-11-08 10:33:11 51°12.257 2°37.169 19.6341 0.03042 0.174471 -0.687152
2010-11-08 10:34:12 51°12.466 2°37.218 19.6369 0.03042 0.174501 -0.721976
2010-11-08 10:35:12 51°12.674 2°37.275 19.6544 0.03042 0.174533 -0.721976
2010-11-08 10:36:12 51°12.879 2°37.335 19.6857 0.03042 0.174562 -0.687152
2010-11-08 10:37:11 51°13.083 2°37.37 19.6842 0.03042 0.174594 -0.721976
2010-11-08 10:38:11 51°13.288 2°37.383 19.6926 0.03042 0.174615 -0.687152
2010-11-08 10:39:12 51°13.491 2°37.362 19.7378 0.030316 0.174043 -0.687152
2010-11-08 10:40:11 51°13.677 2°37.234 19.7068 0.03042 0.174671 -0.687152
2010-11-08 10:41:12 51°13.863 2°37.051 19.7412 0.03042 0.174697 -0.687152
2010-11-08 10:42:12 51°14.028 2°36.829 19.7285 0.03042 0.17472 -0.721976
2010-11-08 10:43:11 51°14.193 2°36.625 19.7532 0.030316 0.174148 -0.721976
2010-11-08 10:44:12 51°14.366 2°36.422 19.7628 0.030316 0.174171 -0.687152
2010-11-08 10:45:12 51°14.559 2°36.275 19.7628 0.030316 0.174198 -0.687152
2010-11-08 10:46:12 51°14.764 2°36.166 19.7775 0.030316 0.174218 -0.687152
2010-11-08 10:47:12 51°14.96 2°36.056 19.7934 0.030316 0.174233 -0.687152
2010-11-08 10:48:11 51°15.159 2°35.971 19.8113 0.030316 0.174265 -0.687152
2010-11-08 10:49:11 51°15.364 2°35.881 19.8173 0.030316 0.174285 -0.687152
2010-11-08 10:50:11 51°15.568 2°35.803 19.8309 0.030316 0.174306 -0.721976
2010-11-08 10:51:12 51°15.778 2°35.748 19.8277 0.030316 0.174332 -0.687152
2010-11-08 10:52:12 51°15.987 2°35.684 19.8512 0.030316 0.174359 -0.687152
2010-11-08 10:53:12 51°16.201 2°35.627 19.8539 0.030316 0.174385 -0.687152
2010-11-08 10:54:11 51°16.41 2°35.571 19.8678 0.030316 0.174406 -0.721976
2010-11-08 10:55:11 51°16.619 2°35.516 19.8733 0.030316 0.174426 -0.687152
2010-11-08 10:56:11 51°16.829 2°35.459 19.8882 0.030316 0.174447 -0.687152
2010-11-08 10:57:11 51°17.042 2°35.416 19.8989 0.030316 0.174476 -0.687152
2010-11-08 10:58:11 51°17.255 2°35.374 19.899 0.030316 0.174503 -0.687152
2010-11-08 10:59:11 51°17.459 2°35.328 19.9142 0.030316 0.174523 -0.721976
2010-11-08 11:00:11 51°17.655 2°35.24 19.9122 0.030316 0.17455 -0.687152
2010-11-08 11:01:11 51°17.767 2°34.976 19.9207 0.030316 0.174573 -0.721976
2010-11-08 11:02:11 51°17.851 2°34.671 19.9091 0.030316 0.174591 -0.721976
2010-11-08 11:03:12 51°17.935 2°34.359 19.929 0.030316 0.174629 -0.687152
2010-11-08 11:04:12 51°18.018 2°34.053 19.9379 0.030316 0.174656 -0.721976
2010-11-08 11:05:11 51°18.088 2°33.75 19.9384 0.030316 0.174667 -0.687152
2010-11-08 11:06:12 51°18.167 2°33.441 19.8759 0.030212 0.174108 -0.687152
2010-11-08 11:07:12 51°18.243 2°33.137 19.9003 0.030316 0.174741 -0.721976
2010-11-08 11:08:11 51°18.327 2°32.845 19.9406 0.030316 0.174785 -0.721976
2010-11-08 11:09:12 51°18.409 2°32.532 19.95 0.030316 0.17483 -0.687152
2010-11-08 11:10:11 51°18.491 2°32.236 19.9478 0.030316 0.174844 -0.721976
2010-11-08 11:11:11 51°18.57 2°31.929 19.9402 0.030212 0.174272 -0.687152
2010-11-08 11:12:12 51°18.628 2°31.605 19.8927 0.030212 0.174293 -0.687152
2010-11-08 11:13:11 51°18.677 2°31.286 19.8325 0.030212 0.174325 -0.652328
2010-11-08 11:14:12 51°18.729 2°30.963 19.9318 0.030212 0.174355 -0.721976
2010-11-08 11:15:12 51°18.778 2°30.641 19.9344 0.030212 0.174417 -0.721976
2010-11-08 11:16:11 51°18.839 2°30.337 19.867 0.030212 0.17444 -0.687152
2010-11-08 11:17:11 51°18.899 2°30.035 19.9385 0.030212 0.174517 -0.721976
2010-11-08 11:18:12 51°18.93 2°29.737 19.9176 0.030212 0.17455 -0.687152
2010-11-08 11:19:12 51°18.945 2°29.448 19.811 0.030212 0.174582 -0.687152
2010-11-08 11:20:12 51°18.956 2°29.163 19.9196 0.030212 0.174624 -0.721976
2010-11-08 11:21:12 51°18.946 2°28.882 19.7234 0.030212 0.17468 -0.687152
2010-11-08 11:22:12 51°18.806 2°28.703 19.9107 0.030212 0.174668 -0.687152
2010-11-08 11:23:11 51°18.704 2°28.463 19.9383 0.030212 0.174701 -0.687152
2010-11-08 11:24:11 51°18.596 2°28.213 19.8701 0.030212 0.174742 -0.687152
2010-11-08 11:25:11 51°18.473 2°27.976 19.9113 0.030108 0.174192 -0.721976
2010-11-08 11:26:11 51°18.351 2°27.741 19.9345 0.030212 0.174837 -0.652328
2010-11-08 11:27:11 51°18.23 2°27.502 19.9446 0.030212 0.174864 -0.687152
2010-11-08 11:28:11 51°18.104 2°27.274 19.94 0.030108 0.174295 -0.652328
2010-11-08 11:29:11 51°17.972 2°27.061 19.9938 0.030212 0.174944 -0.687152
2010-11-08 11:30:12 51°17.83 2°26.849 19.9612 0.030108 0.174393 -0.687152
2010-11-08 11:31:12 51°17.682 2°26.656 19.9736 0.030108 0.174443 -0.687152
2010-11-08 11:32:12 51°17.533 2°26.469 20.0106 0.030108 0.174482 -0.687152
2010-11-08 11:33:12 51°17.378 2°26.302 19.9988 0.030108 0.174523 -0.687152
2010-11-08 11:34:11 51°17.223 2°26.143 20.0045 0.030108 0.174559 -0.687152
2010-11-08 11:35:12 51°17.064 2°25.979 20.0321 0.030108 0.174604 -0.687152
2010-11-08 11:36:12 51°16.897 2°25.85 20.0337 0.030004 0.17404 -0.687152
2010-11-08 11:37:11 51°16.726 2°25.745 20.0568 0.030108 0.174678 -0.687152
2010-11-08 11:38:11 51°16.593 2°25.536 20.0626 0.030108 0.174758 -0.687152
2010-11-08 11:39:12 51°16.463 2°25.338 20.0709 0.030108 0.1748 -0.687152
2010-11-08 11:40:11 51°16.318 2°25.279 20.0625 0.030004 0.174188 -0.687152
2010-11-08 11:41:12 51°16.185 2°25.272 20.0557 0.030004 0.17428 -0.687152
2010-11-08 11:42:12 51°16.105 2°25.273 20.0757 0.030004 0.174316 -0.687152
2010-11-08 11:43:12 51°16.098 2°25.28 20.0807 0.030004 0.174385 -0.687152
2010-11-08 11:44:12 51°16.103 2°25.291 20.0868 0.030004 0.174405 -0.687152
2010-11-08 11:45:12 51°16.116 2°25.309 20.0995 0.030004 0.174453 -0.652328
2010-11-08 11:46:12 51°16.136 2°25.33 20.1315 0.030004 0.174501 -0.687152
2010-11-08 11:47:12 51°16.16 2°25.357 20.1256 0.030004 0.17456 -0.687152
2010-11-08 11:48:12 51°16.183 2°25.393 20.1509 0.030004 0.174605 -0.687152
2010-11-08 11:49:12 51°16.205 2°25.43 20.1494 0.0299 0.174063 -0.687152
2010-11-08 11:50:12 51°16.227 2°25.473 20.1609 0.0299 0.174114 -0.721976
2010-11-08 11:51:12 51°16.248 2°25.509 20.1746 0.0299 0.174156 -0.687152
2010-11-08 11:52:11 51°16.263 2°25.497 20.1858 0.0299 0.174216 -0.687152
2010-11-08 11:53:11 51°16.306 2°25.426 20.1925 0.0299 0.174296 -0.652328
2010-11-08 11:54:11 51°16.291 2°25.285 20.2097 0.0299 0.174305 -0.652328
2010-11-08 11:55:11 51°16.232 2°25.119 20.23 0.0299 0.174344 -0.687152
2010-11-08 11:56:12 51°16.258 2°25.001 20.2311 0.0299 0.174446 -0.687152
2010-11-08 11:57:12 51°16.339 2°24.966 20.2499 0.0299 0.174458 -0.721976
2010-11-08 11:58:12 51°16.416 2°24.98 20.2621 0.0299 0.174491 -0.721976
2010-11-08 11:59:11 51°16.503 2°25.044 20.2719 0.0299 0.174539 -0.687152
2010-11-08 12:00:11 51°16.573 2°25.142 20.2924 0.029796 0.17395 -0.687152
2010-11-08 12:01:11 51°16.626 2°25.252 20.2972 0.0299 0.174608 -0.652328
2010-11-08 12:02:11 51°16.681 2°25.358 20.3028 0.0299 0.174632 -0.687152
2010-11-08 12:03:11 51°16.738 2°25.455 20.3265 0.029796 0.174058 -0.687152
2010-11-08 12:04:11 51°16.803 2°25.536 20.3371 0.029796 0.174076 -0.687152
2010-11-08 12:05:12 51°16.862 2°25.613 20.3529 0.029796 0.174106 -0.687152
2010-11-08 12:06:11 51°16.918 2°25.689 20.3665 0.029796 0.174133 -0.721976
2010-11-08 12:07:12 51°16.974 2°25.766 20.3779 0.029796 0.17416 -0.687152
2010-11-08 12:08:12 51°17.03 2°25.839 20.3878 0.029796 0.174196 -0.687152
2010-11-08 12:09:11 51°17.086 2°25.911 20.3973 0.029796 0.174217 -0.687152
2010-11-08 12:10:11 51°17.145 2°25.975 20.4058 0.029796 0.174244 -0.687152
2010-11-08 12:11:12 51°17.202 2°26.037 20.4285 0.029796 0.174265 -0.687152
2010-11-08 12:12:11 51°17.26 2°26.101 20.4359 0.029796 0.174292 -0.652328
2010-11-08 12:13:11 51°17.319 2°26.163 20.4497 0.029796 0.174328 -0.652328
2010-11-08 12:14:12 51°17.376 2°26.233 20.4642 0.029796 0.174349 -0.721976
2010-11-08 12:15:12 51°17.435 2°26.301 20.4763 0.029692 0.173774 -0.687152
2010-11-08 12:16:11 51°17.489 2°26.371 20.4857 0.029796 0.174406 -0.687152
2010-11-08 12:17:11 51°17.544 2°26.441 20.4933 0.029796 0.174436 -0.687152
2010-11-08 12:18:11 51°17.598 2°26.511 20.5076 0.029692 0.173852 -0.721976
2010-11-08 12:19:11 51°17.654 2°26.582 20.5165 0.029796 0.17449 -0.687152
2010-11-08 12:20:11 51°17.711 2°26.652 20.5278 0.029692 0.173906 -0.652328
2010-11-08 12:21:11 51°17.767 2°26.717 20.5394 0.029692 0.173921 -0.721976
2010-11-08 12:22:11 51°17.825 2°26.781 20.5508 0.029692 0.173945 -0.721976
2010-11-08 12:23:12 51°17.883 2°26.85 20.5627 0.029692 0.173981 -0.687152
2010-11-08 12:24:12 51°17.94 2°26.92 20.5714 0.029692 0.174002 -0.652328
2010-11-08 12:25:11 51°17.995 2°26.99 20.5764 0.029692 0.174032 -0.652328
2010-11-08 12:26:11 51°18.051 2°27.062 20.5855 0.029692 0.174053 -0.652328
2010-11-08 12:27:11 51°18.106 2°27.137 20.5953 0.029692 0.174083 -0.687152
2010-11-08 12:28:11 51°18.159 2°27.209 20.6023 0.029692 0.174101 -0.687152
2010-11-08 12:29:11 51°18.212 2°27.282 20.6167 0.029692 0.174131 -0.687152
2010-11-08 12:30:11 51°18.264 2°27.36 20.6291 0.029692 0.174161 -0.687152
2010-11-08 12:31:11 51°18.318 2°27.431 20.6401 0.029692 0.174185 -0.687152
2010-11-08 12:32:11 51°18.371 2°27.503 20.6357 0.029692 0.1742 -0.687152
2010-11-08 12:33:12 51°18.423 2°27.577 20.6552 0.029692 0.174236 -0.687152
2010-11-08 12:34:12 51°18.478 2°27.647 20.6593 0.029692 0.174264 -0.652328
2010-11-08 12:35:12 51°18.534 2°27.716 20.6643 0.029692 0.174273 -0.652328
2010-11-08 12:36:12 51°18.585 2°27.781 20.68 0.029692 0.174327 -0.687152
2010-11-08 12:37:11 51°18.632 2°27.845 20.6817 0.029692 0.174339 -0.652328
2010-11-08 12:38:11 51°18.681 2°27.911 20.6847 0.029692 0.174384 -0.687152
2010-11-08 12:39:11 51°18.732 2°27.975 20.7008 0.029692 0.174396 -0.652328
2010-11-08 12:40:11 51°18.778 2°28.041 20.7054 0.029692 0.174445 -0.652328
2010-11-08 12:41:12 51°18.825 2°28.106 20.7065 0.029692 0.174466 -0.652328
2010-11-08 12:42:11 51°18.867 2°28.167 20.7187 0.029692 0.174475 -0.687152
2010-11-08 12:43:11 51°18.909 2°28.223 20.7401 0.029588 0.173916 -0.687152
2010-11-08 12:44:11 51°18.952 2°28.279 20.7382 0.029588 0.173925 -0.687152
2010-11-08 12:45:11 51°18.994 2°28.336 20.7536 0.029588 0.173955 -0.652328
2010-11-08 12:46:11 51°19.037 2°28.4 20.7561 0.029588 0.173976 -0.687152
2010-11-08 12:47:11 51°19.081 2°28.464 20.7687 0.029588 0.174027 -0.721976
2010-11-08 12:48:11 51°19.122 2°28.523 20.774 0.029588 0.17403 -0.687152
2010-11-08 12:49:11 51°19.162 2°28.565 20.7821 0.029588 0.17407 -0.687152
2010-11-08 12:50:11 51°19.199 2°28.591 20.7894 0.029588 0.174079 -0.652328
2010-11-08 12:51:12 51°19.235 2°28.614 20.8002 0.029588 0.174118 -0.652328
2010-11-08 12:52:12 51°19.275 2°28.649 20.8093 0.029588 0.174136 -0.652328
2010-11-08 12:53:11 51°19.37 2°28.786 20.8256 0.029588 0.174163 -0.687152
2010-11-08 12:54:11 51°19.488 2°29.049 20.8337 0.029588 0.174206 -0.652328
2010-11-08 12:55:11 51°19.58 2°29.392 20.8174 0.029588 0.174224 -0.687152
2010-11-08 12:56:11 51°19.653 2°29.753 20.8496 0.029588 0.174236 -0.652328
2010-11-08 12:57:11 51°19.725 2°30.129 20.861 0.029588 0.17426 -0.687152
2010-11-08 12:58:11 51°19.792 2°30.506 20.8661 0.029588 0.174279 -0.652328
2010-11-08 12:59:12 51°19.867 2°30.882 20.8661 0.029484 0.173681 -0.687152
2010-11-08 13:00:11 51°19.941 2°31.233 20.8876 0.029588 0.174266 -0.687152
2010-11-08 13:01:12 51°20.021 2°31.587 20.8788 0.029588 0.174294 -0.687152
2010-11-08 13:02:11 51°20.07 2°31.937 20.8817 0.029588 0.174269 -0.652328
2010-11-08 13:03:11 51°20.09 2°32.299 20.8889 0.029588 0.174421 -0.687152
2010-11-08 13:04:11 51°20.106 2°32.66 20.8903 0.029588 0.174412 -0.652328
2010-11-08 13:05:11 51°20.098 2°33.016 20.9034 0.029588 0.174433 -0.652328
2010-11-08 13:06:11 51°20.118 2°33.383 20.9107 0.029588 0.174448 -0.652328
2010-11-08 13:07:11 51°20.149 2°33.746 20.9133 0.029588 0.174491 -0.687152
2010-11-08 13:08:11 51°20.171 2°34.115 20.9133 0.029588 0.174494 -0.687152
2010-11-08 13:09:11 51°20.179 2°34.483 20.9171 0.029484 0.173893 -0.687152
2010-11-08 13:10:11 51°20.185 2°34.848 20.9275 0.029588 0.174549 -0.687152
2010-11-08 13:11:11 51°20.189 2°35.209 20.9282 0.029588 0.174597 -0.58268
2010-11-08 13:12:11 51°20.192 2°35.573 20.9408 0.029484 0.173984 -0.547855
2010-11-08 13:13:11 51°20.173 2°35.938 20.9367 0.029484 0.173993 -0.547855
2010-11-08 13:14:11 51°20.15 2°36.295 20.9533 0.029588 0.17464 -0.58268
2010-11-08 13:15:11 51°20.125 2°36.651 20.9475 0.029588 0.17468 -0.547855
2010-11-08 13:16:11 51°20.102 2°37.01 20.9539 0.029484 0.174063 -0.547855
2010-11-08 13:17:11 51°20.079 2°37.372 20.9547 0.029484 0.174109 -0.547855
2010-11-08 13:18:11 51°20.059 2°37.731 20.9607 0.029484 0.174072 -0.513031
2010-11-08 13:19:11 51°20.04 2°38.087 20.9683 0.029484 0.174133 -0.513031
2010-11-08 13:20:11 51°20.017 2°38.445 20.9625 0.029484 0.174169 -0.547855
2010-11-08 13:21:11 51°19.996 2°38.802 20.974 0.029484 0.174185 -0.547855
2010-11-08 13:22:11 51°19.975 2°39.156 20.9818 0.029484 0.17423 -0.547855
2010-11-08 13:23:11 51°19.957 2°39.512 20.9792 0.029484 0.174246 -0.58268
2010-11-08 13:24:11 51°19.936 2°39.869 20.9876 0.029484 0.174252 -0.58268
2010-11-08 13:25:11 51°19.918 2°40.227 20.9885 0.029484 0.174285 -0.58268
2010-11-08 13:26:11 51°19.901 2°40.587 20.9938 0.029484 0.174322 -0.58268
2010-11-08 13:27:11 51°19.882 2°40.955 20.9937 0.029484 0.174346 -0.547855
2010-11-08 13:28:11 51°19.859 2°41.317 21.0061 0.029484 0.174377 -0.58268
2010-11-08 13:29:11 51°19.838 2°41.679 21.004 0.029484 0.174389 -0.58268
2010-11-08 13:30:11 51°19.816 2°42.039 21.0048 0.029484 0.174413 -0.547855
2010-11-08 13:31:11 51°19.793 2°42.399 21.0157 0.029484 0.174444 -0.547855
2010-11-08 13:32:11 51°19.77 2°42.756 21.0074 0.029484 0.174456 -0.547855
2010-11-08 13:33:11 51°19.747 2°43.112 21.0137 0.029484 0.174489 -0.547855
2010-11-08 13:34:11 51°19.722 2°43.468 21.0154 0.029484 0.174502 -0.58268
2010-11-08 13:35:11 51°19.702 2°43.824 21.0185 0.029484 0.174541 -0.58268
2010-11-08 13:36:11 51°19.683 2°44.181 21.024 0.029484 0.17456 -0.547855
2010-11-08 13:37:11 51°19.667 2°44.538 21.0231 0.02938 0.17396 -0.58268
2010-11-08 13:38:11 51°19.65 2°44.901 21.03 0.029484 0.174596 -0.547855
2010-11-08 13:39:11 51°19.632 2°45.267 21.0329 0.02938 0.174011 -0.547855
2010-11-08 13:40:11 51°19.613 2°45.637 21.0291 0.02938 0.174027 -0.547855
2010-11-08 13:41:11 51°19.592 2°46.002 21.0353 0.02938 0.174036 -0.547855
2010-11-08 13:42:11 51°19.571 2°46.367 21.0372 0.02938 0.174069 -0.547855
2010-11-08 13:43:11 51°19.549 2°46.729 21.0396 0.02938 0.1741 -0.547855
2010-11-08 13:44:11 51°19.507 2°47.078 21.0435 0.02938 0.174127 -0.547855
2010-11-08 13:45:11 51°19.391 2°47.367 21.0384 0.02938 0.174146 -0.513031
2010-11-08 13:46:11 51°19.272 2°47.654 21.043 0.02938 0.174173 -0.547855
2010-11-08 13:47:11 51°19.16 2°47.948 21.0497 0.02938 0.174201 -0.547855
2010-11-08 13:48:11 51°19.049 2°48.244 21.0516 0.02938 0.174231 -0.58268
2010-11-08 13:49:11 51°18.941 2°48.545 20.1414 0.02938 0.17425 -0.58268
2010-11-08 13:50:11 51°18.83 2°48.842 20.2607 0.02938 0.174289 -0.58268
2010-11-08 13:51:11 51°18.719 2°49.137 20.2879 0.02938 0.17432 -0.547855
2010-11-08 13:52:11 51°18.605 2°49.431 20.3087 0.02938 0.174351 -0.547855
2010-11-08 13:53:11 51°18.494 2°49.723 19.79 0.02938 0.174375 -0.547855
2010-11-08 13:54:11 51°18.382 2°50.015 19.7139 0.02938 0.1744 -0.547855
2010-11-08 13:55:11 51°18.273 2°50.304 20.6072 0.02938 0.174427 -0.547855
2010-11-08 13:56:11 51°18.165 2°50.596 20.5067 0.02938 0.174464 -0.58268
2010-11-08 13:57:11 51°18.058 2°50.886 20.5067 0.029276 0.173865 -0.547855
2010-11-08 13:58:11 51°17.95 2°51.175 20.5493 0.029276 0.173893 -0.547855
2010-11-08 13:59:11 51°17.835 2°51.453 20.6381 0.02938 0.174553 -0.547855
2010-11-08 14:00:11 51°17.695 2°51.694 20.5734 0.029276 0.17396 -0.58268
2010-11-08 14:01:11 51°17.543 2°51.908 20.61 0.02938 0.174602 -0.547855
2010-11-08 14:02:11 51°17.371 2°52.066 20.597 0.02938 0.174645 -0.547855
2010-11-08 14:03:11 51°17.194 2°52.2 20.5818 0.029276 0.174058 -0.547855
2010-11-08 14:04:11 51°17.025 2°52.365 19.6194 0.029276 0.174104 -0.547855
2010-11-08 14:05:11 51°16.856 2°52.542 19.4553 0.029276 0.174141 -0.547855
2010-11-08 14:06:11 51°16.687 2°52.724 19.5649 0.029276 0.174181 -0.547855
2010-11-08 14:07:11 51°16.513 2°52.898 19.5609 0.029276 0.174221 -0.547855
2010-11-08 14:08:11 51°16.34 2°53.065 19.6784 0.029276 0.174248 -0.547855
2010-11-08 14:09:11 51°16.162 2°53.22 19.6867 0.029276 0.174288 -0.547855
2010-11-08 14:10:11 51°15.984 2°53.377 19.7349 0.029276 0.174316 -0.513031
2010-11-08 14:11:11 51°15.809 2°53.537 19.7967 0.029276 0.174353 -0.547855
2010-11-08 14:12:11 51°15.637 2°53.713 19.8911 0.029276 0.17439 -0.547855
2010-11-08 14:13:11 51°15.466 2°53.889 19.855 0.029172 0.173792 -0.547855
2010-11-08 14:14:11 51°15.295 2°54.071 19.8877 0.029276 0.174455 -0.58268
2010-11-08 14:15:11 51°15.128 2°54.26 19.9258 0.029276 0.174489 -0.547855
2010-11-08 14:16:11 51°14.965 2°54.467 19.8789 0.029276 0.174529 -0.547855
2010-11-08 14:17:11 51°14.81 2°54.689 19.9144 0.029172 0.173933 -0.547855
2010-11-08 14:18:11 51°14.657 2°54.895 19.8911 0.029172 0.173964 -0.58268
2010-11-08 14:19:11 51°14.519 2°55.055 19.9416 0.029172 0.174004 -0.547855
2010-11-08 14:20:11 51°14.396 2°55.167 19.9208 0.029172 0.174038 -0.547855
2010-11-08 14:21:11 51°14.28 2°55.274 19.9209 0.029172 0.174072 -0.547855
2010-11-08 14:22:12 51°14.162 2°55.374 20.0738 0.029172 0.174106 -0.58268
2010-11-08 14:23:11 51°14.044 2°55.464 20.0974 0.029172 0.174133 -0.547855
2010-11-08 14:24:11 51°13.95 2°55.532 19.9026 0.029172 0.174164 -0.547855
2010-11-08 14:25:11 51°13.886 2°55.577 19.9556 0.029172 0.174192 -0.58268
2010-11-08 14:26:11 51°13.823 2°55.625 19.9439 0.029172 0.174226 -0.547855
2010-11-08 14:27:11 51°13.761 2°55.707 19.9323 0.029172 0.174251 -0.547855
2010-11-08 14:28:11 51°13.711 2°55.805 19.9316 0.029172 0.174285 -0.547855
2010-11-08 14:29:11 51°13.674 2°55.899 20.0215 0.029172 0.174313 -0.547855